[[{"header":{"parameterUnit":"m.s-1","parameterCategory":1,"la1":30.2991,"la2":30.254,"lo1":-89.0895,"lo2":-89.0444,"dy":0.0017,"dx":0.0017,"nx":28,"ny":28,"refTime":"2024-07-21T09:00:00:Z","depth":0,"parameterNumber":2,"parameterNumberName":"U-component_of_WINDS"},"data":[0,0,0,0,0,0,0,0,0,0,0,0,0,0,0,0,0,0,0,0,0,0,0,0,0,0,0,0,0,0,0,0,0,0,0,0,0,0,0,0,0,0,0,0,0,0,0,0,0,0,0,0,0,0,0,0,0,0,2.4812,2.4812,0,2.4895,2.4896,2.4897,2.4883,2.4881,2.488,2.4879,2.496,2.4964,2.4967,0,0,0,0,0,0,0,0,0,0,0,0,0,2.4635,2.4639,2.4811,2.4813,2.4814,2.4895,2.4896,2.4897,2.4883,2.4881,2.488,2.4878,2.4959,2.4963,2.4967,0,0,0,0,0,0,0,0,0,0,0,0,0,2.4714,2.464,2.4811,2.4817,2.4818,2.4894,2.4896,2.4897,2.4883,2.4881,2.4879,2.4877,2.4958,2.4963,2.4968,2.5044,0,0,2.4984,2.4986,0,0,0,0,0,0,0,0,2.471,2.4721,2.4815,2.4816,2.4818,2.4876,2.4864,2.4946,2.4884,2.4858,2.4879,2.4876,2.4934,2.4941,2.4961,2.5047,2.5051,2.4985,2.4988,2.499,2.4992,0,0,0,0,0,0,0,2.4705,2.4717,2.4844,2.4816,2.4818,2.4813,2.4822,2.4879,2.4907,2.4861,2.486,2.487,2.4934,2.4956,2.4963,2.5052,2.4984,2.4989,2.4992,2.4994,2.52,2.5202,0,0,0,0,0,0,2.4698,2.4713,2.4842,2.4847,2.4758,2.4818,2.4828,2.486,2.4906,2.4912,2.4872,2.4869,2.4948,2.4957,2.4966,2.5054,2.499,2.4995,2.4998,2.5198,2.5201,2.5203,0,0,0,0,0,0,2.4694,2.471,2.4838,2.478,2.4796,2.4823,2.4859,2.4862,2.4884,2.4915,2.4919,2.4889,2.4947,2.4958,2.5024,2.5057,2.4997,2.5002,2.5195,2.5199,2.5202,2.5233,0,0,0,0,0,0,2.4689,2.4709,2.4739,2.4781,2.4799,2.4896,2.4861,2.4866,2.4894,2.4891,2.4933,2.4937,2.4946,2.5016,2.5029,2.5063,2.5006,2.5192,2.5197,2.5201,2.5229,2.5237,2.5244,0,0,0,0,0,2.4683,2.4744,2.4741,2.4756,2.4838,2.4899,2.4909,2.4919,2.4897,2.4926,2.4945,2.4936,2.5052,2.5023,2.5037,2.5073,2.519,2.5195,2.52,2.5226,2.5236,2.5244,0,0,0,0,0,0,2.4705,2.475,2.4746,2.4823,2.4857,2.4896,2.4934,2.4929,2.4969,2.4965,2.4974,2.4984,2.5049,2.5068,2.5035,2.5147,2.5117,2.5126,2.5132,2.5141,2.5149,2.5141,2.5011,0,0,0,0,0,2.4719,2.4767,2.4803,2.4867,2.4884,2.4906,2.4933,2.4938,2.4973,2.4987,2.5011,2.5044,2.5087,2.5116,2.5158,2.5233,2.5239,2.5264,2.5272,2.5278,2.5284,2.5321,2.5332,2.522,2.522,2.522,0,0,2.4748,2.4779,2.4808,2.4872,2.4899,2.4945,2.4918,2.4969,2.5003,2.4994,2.5056,2.5075,2.5113,2.5182,2.5214,2.52,2.5317,2.5285,2.5289,2.5292,2.5328,2.5338,2.5347,2.5224,2.5223,2.5222,0,0,2.4824,2.4854,2.4908,2.4936,2.4977,2.4991,2.5004,2.5044,2.5056,2.5119,2.5112,2.5152,2.5228,2.5253,2.5277,2.536,2.5352,2.5374,2.5412,2.5448,2.5456,2.5464,2.549,2.55,2.538,2.5381,2.5381,0,2.4855,2.4926,2.4937,2.4988,2.5015,2.501,2.5064,2.509,2.5142,2.516,2.5144,2.5237,2.5262,2.5335,2.5356,2.5376,2.5389,2.5368,2.5455,2.5462,2.547,2.5495,2.5505,2.5383,2.5382,2.5382,2.5382,0,2.4959,2.5008,2.5048,2.5098,2.513,2.5183,2.5199,2.523,2.5231,2.5246,2.5309,2.5339,2.5385,2.5403,2.5406,2.5476,2.5466,2.5453,2.5423,2.5482,2.5506,2.5516,2.5386,2.5385,2.5384,2.5384,0,0,2.5051,2.5106,2.512,2.5141,2.5186,2.5223,2.5274,2.532,2.5344,2.5381,2.5421,2.5485,2.5472,2.5498,2.5503,2.5535,2.5595,2.5517,2.5518,2.5527,2.567,2.5678,2.5689,2.559,2.5592,2.5594,2.5666,0,2.5128,2.5219,2.523,2.531,2.5353,2.5348,2.5392,2.5423,2.5438,2.5475,2.5492,2.5535,2.5516,2.5532,2.5563,2.5581,2.5623,2.5576,2.5625,2.5627,2.5613,2.5702,2.5711,2.5777,2.5675,2.5677,2.5678,0,2.5231,2.5269,2.5354,2.5389,2.5408,2.5447,2.5488,2.5526,2.5559,2.5568,2.5596,2.5597,2.5646,2.5616,2.5683,2.5651,2.5672,2.5683,2.5686,2.5689,2.5654,2.5704,2.5799,2.5808,2.5694,2.5692,2.5691,0,2.5284,2.5358,2.5417,2.5436,2.548,2.5507,2.5526,2.5558,2.5584,2.562,2.5636,2.5678,2.5699,2.573,2.5741,2.5719,2.5806,2.5778,2.5811,2.5811,2.5828,2.5826,2.5925,2.5847,2.5847,2.5846,2.5846,0,2.5368,2.5419,2.5441,2.5477,2.5533,2.5544,2.5598,2.5616,2.5644,2.5682,2.5681,2.5716,2.5729,2.5765,2.5774,2.5826,2.5836,2.5842,2.5843,2.5841,2.584,2.5852,2.5847,2.5849,2.5849,2.5848,2.5848,0,2.5436,2.5454,2.5517,2.5554,2.5564,2.5603,2.5633,2.5666,2.5681,2.5728,2.574,2.5762,2.5804,2.5818,2.587,2.5875,2.5935,2.5934,2.5924,2.5923,2.5955,2.595,2.6063,2.6076,2.5992,2.5993,2.5994,0,2.5487,2.5526,2.5566,2.5591,2.5612,2.5653,2.5679,2.5691,2.5718,2.5758,2.5786,2.5829,2.5863,2.5931,2.595,2.5989,2.5986,2.6023,2.5992,2.5987,2.5983,2.5979,2.5981,2.6028,2.6029,2.6029,2.603,0,2.5574,2.558,2.5619,2.566,2.5691,2.5724,2.5756,2.5776,2.5792,2.5822,2.5866,2.5893,2.5945,2.5986,2.6025,2.6043,2.6038,2.604,2.6049,2.6045,2.6036,2.6038,2.5936,2.6037,2.6036,2.6035,2.6035,2.6035,2.5633,2.5666,2.5698,2.5741,2.5766,2.5795,2.5827,2.5845,2.5882,2.5926,2.593,2.5977,2.6006,2.6059,2.6078,2.6113,2.6102,2.6117,2.612,2.6122,2.6123,2.6033,2.6121,2.612,2.612,2.612,2.612,0,2.5717,2.5737,2.5776,2.582,2.5852,2.5847,2.5881,2.5907,2.5948,2.5977,2.6011,2.6059,2.6099,2.6121,2.6159,2.6183,2.6181,2.6192,2.6189,2.6192,2.6132,2.6119,2.6192,2.6192,2.6192,2.6192,2.6192,2.6192,2.5764,2.5818,2.5828,2.5894,2.5914,2.5959,2.5979,2.6004,2.6027,2.6082,2.6114,2.6129,2.6154,2.6194,2.6229,2.6234,2.6247,2.6259,2.6262,2.6205,2.6197,2.619,2.6177,2.6262,2.6262,2.6319,2.632,2.632]},{"header":{"parameterUnit":"m.s-1","parameterCategory":1,"la1":30.2991,"la2":30.254,"lo1":-89.0895,"lo2":-89.0444,"dy":0.0017,"dx":0.0017,"nx":28,"ny":28,"refTime":"2024-07-21T09:00:00:Z","depth":0,"parameterNumber":3,"parameterNumberName":"V-component_of_WINDS"},"data":[0,0,0,0,0,0,0,0,0,0,0,0,0,0,0,0,0,0,0,0,0,0,0,0,0,0,0,0,0,0,0,0,0,0,0,0,0,0,0,0,0,0,0,0,0,0,0,0,0,0,0,0,0,0,0,0,0,0,1.7916,1.7917,0,1.7971,1.7971,1.7972,1.7948,1.7947,1.7946,1.7945,1.8002,1.8005,1.8008,0,0,0,0,0,0,0,0,0,0,0,0,0,1.7792,1.7794,1.7916,1.7917,1.7918,1.7971,1.7972,1.7972,1.7949,1.7947,1.7945,1.7944,1.8001,1.8005,1.8008,0,0,0,0,0,0,0,0,0,0,0,0,0,1.7846,1.7795,1.7916,1.7912,1.7912,1.7971,1.7972,1.7972,1.7949,1.7947,1.7945,1.7943,1.8,1.8004,1.8008,1.8074,0,0,1.8021,1.8023,0,0,0,0,0,0,0,0,1.7843,1.7851,1.7912,1.7912,1.7913,1.7951,1.7949,1.8007,1.795,1.7935,1.7944,1.7942,1.7987,1.7992,1.8007,1.8077,1.8079,1.8022,1.8024,1.8026,1.8027,0,0,0,0,0,0,0,1.784,1.7848,1.7938,1.7913,1.7913,1.7908,1.7913,1.796,1.7972,1.7936,1.7935,1.7941,1.7987,1.8003,1.8008,1.808,1.8021,1.8025,1.8028,1.8029,1.8207,1.8209,0,0,0,0,0,0,1.7836,1.7845,1.7936,1.7939,1.7872,1.7912,1.7918,1.7941,1.7971,1.7974,1.7943,1.794,1.7997,1.8003,1.801,1.8088,1.8026,1.803,1.8032,1.8204,1.8207,1.8209,0,0,0,0,0,0,1.7833,1.7844,1.7934,1.7892,1.7903,1.7916,1.7942,1.7943,1.7959,1.7976,1.7978,1.7957,1.7995,1.8004,1.8058,1.809,1.8032,1.8035,1.8202,1.8205,1.8208,1.8247,0,0,0,0,0,0,1.783,1.7843,1.7868,1.7893,1.7905,1.7981,1.7944,1.7945,1.7966,1.7962,1.799,1.7993,1.7994,1.8052,1.8062,1.8095,1.8039,1.8199,1.8203,1.8207,1.8242,1.8251,1.8258,0,0,0,0,0,1.7825,1.7877,1.787,1.7881,1.7937,1.7983,1.799,1.7991,1.7969,1.7994,1.8005,1.7992,1.8085,1.8058,1.8069,1.8103,1.8197,1.8202,1.8207,1.8239,1.8249,1.8258,0,0,0,0,0,0,1.7857,1.7881,1.7872,1.7934,1.7956,1.7979,1.8011,1.8001,1.8031,1.8027,1.8027,1.8033,1.8089,1.8102,1.8071,1.8168,1.8138,1.8145,1.8158,1.8168,1.8175,1.8171,1.8042,0,0,0,0,0,1.7871,1.7906,1.7925,1.7977,1.7989,1.7998,1.8018,1.8016,1.804,1.805,1.8065,1.8089,1.8123,1.8146,1.8179,1.8244,1.825,1.8273,1.8281,1.8287,1.8294,1.8328,1.8339,1.8226,1.8226,1.8226,0,0,1.7901,1.7918,1.794,1.7984,1.8002,1.8038,1.8006,1.8047,1.8074,1.8056,1.8108,1.812,1.8147,1.8206,1.8233,1.8218,1.8326,1.8293,1.8298,1.8301,1.8334,1.8345,1.8355,1.8229,1.8229,1.8228,0,0,1.7973,1.799,1.8035,1.8053,1.8079,1.8085,1.8095,1.8119,1.8126,1.8178,1.8165,1.8198,1.8258,1.8277,1.8295,1.8373,1.8362,1.8384,1.8424,1.8458,1.8467,1.8475,1.8503,1.8513,1.8391,1.8391,1.8391,0,1.8007,1.8061,1.806,1.81,1.812,1.8105,1.8151,1.8168,1.8204,1.8218,1.8201,1.8275,1.8292,1.8356,1.8375,1.839,1.8402,1.8381,1.8466,1.8474,1.8481,1.8507,1.8518,1.8393,1.8393,1.8393,1.8392,0,1.8101,1.8139,1.8172,1.8206,1.8229,1.8273,1.8278,1.8302,1.8298,1.8305,1.8358,1.8377,1.8414,1.8429,1.8426,1.8492,1.8482,1.8465,1.8434,1.8494,1.8519,1.8529,1.8397,1.8396,1.8395,1.8394,0,0,1.8196,1.8228,1.824,1.8255,1.8282,1.8312,1.8354,1.8389,1.8409,1.8434,1.847,1.852,1.8505,1.8525,1.8524,1.8553,1.8614,1.8533,1.8534,1.8547,1.8688,1.87,1.8712,1.8607,1.8609,1.861,1.8685,0,1.827,1.8343,1.8343,1.8411,1.8445,1.8431,1.8468,1.8489,1.8497,1.8528,1.8537,1.8572,1.8549,1.8561,1.859,1.8601,1.8642,1.8595,1.864,1.8642,1.8634,1.8725,1.8738,1.8808,1.8695,1.8697,1.8698,0,1.8366,1.8394,1.8465,1.8487,1.8501,1.8534,1.8566,1.8595,1.8619,1.8622,1.8644,1.8638,1.8681,1.8649,1.8709,1.8677,1.8695,1.8703,1.8706,1.871,1.8673,1.8731,1.883,1.8841,1.8713,1.8712,1.8711,0,1.8428,1.8483,1.8532,1.8545,1.8572,1.8596,1.8608,1.8629,1.865,1.8678,1.8691,1.8723,1.8741,1.8767,1.877,1.8746,1.883,1.8798,1.8834,1.8834,1.8852,1.8851,1.8956,1.8864,1.8864,1.8864,1.8864,0,1.8511,1.8555,1.856,1.859,1.8639,1.8638,1.8687,1.8697,1.8716,1.8749,1.8739,1.8769,1.8771,1.8803,1.8806,1.8854,1.8863,1.8867,1.8867,1.8868,1.8867,1.888,1.8875,1.8867,1.8866,1.8866,1.8865,0,1.8588,1.8593,1.8646,1.8666,1.8672,1.8708,1.8725,1.8754,1.8761,1.8802,1.8812,1.8822,1.8859,1.8864,1.8907,1.8909,1.8967,1.8963,1.8959,1.8959,1.8994,1.8991,1.9111,1.9126,1.9025,1.9026,1.9027,0,1.864,1.8673,1.8697,1.8718,1.8731,1.8765,1.8785,1.8785,1.8807,1.8836,1.8862,1.8897,1.8926,1.8985,1.8997,1.903,1.9025,1.9065,1.903,1.903,1.9026,1.9024,1.9027,1.9072,1.9073,1.9074,1.9075,0,1.8733,1.8733,1.8763,1.8794,1.8818,1.8843,1.8866,1.8883,1.8886,1.8912,1.8949,1.897,1.9014,1.9049,1.9082,1.9095,1.9086,1.9085,1.9095,1.9096,1.9093,1.9095,1.8977,1.9083,1.9082,1.9081,1.9081,1.908,1.8799,1.8827,1.8848,1.8882,1.8899,1.892,1.8948,1.8958,1.8988,1.9023,1.9022,1.9062,1.9085,1.9127,1.9142,1.9174,1.9161,1.9176,1.918,1.9183,1.9187,1.9088,1.918,1.918,1.918,1.9179,1.9179,0,1.889,1.8903,1.8933,1.8965,1.8992,1.898,1.9004,1.9027,1.9063,1.9084,1.9111,1.9154,1.9188,1.9202,1.9235,1.9258,1.9254,1.9267,1.9265,1.9268,1.9196,1.9184,1.9269,1.9269,1.9269,1.9269,1.9269,1.9269,1.8941,1.8989,1.8992,1.9048,1.906,1.9099,1.9114,1.9134,1.9151,1.9198,1.9226,1.9234,1.9253,1.9287,1.9318,1.9321,1.9334,1.9348,1.935,1.9282,1.9273,1.9265,1.9253,1.9351,1.9351,1.9419,1.9419,1.942]}]]